SCP
0 0 0 0 0 0 0 0 0 0 0 0 0 0 0 0 0 0 0 0 0 0 0 0 0 0 0 0 0 0 0 0 0 0 0 0 0 0 0 0 0 0 -0 0 -0 -0 0 0 0 0 0 0 0 0
0 0 0 0 0 0 0 0 0 0 0 0 0 0 0 0 0 0 0 0 0 0 0 0 0 0 0 0 0 0 0 0 0 0 -0 0 0 0 0 0 0 0 0 0 -0 0 -0 -0 0 -0 -0 -0 0 0
0 0 0 0 0 0 0 0 0 0 0 0 -0 0 0 0 0 0 0 0 0 0 0 0 0 0 0 0 0 0 0 0 0 0 0 0 0 0 0 0 0 0 0 0 -0 -0 -0 -0 -0 0 -0 -0 -0 0
0 0 0 0 0 0 0 0 0 0 0 0 0 -0 0 0 0 0 0 0 0 0 0 0 0 0 0 0 0 0 0 0 0 0 0 0 0 0 0 0 0 0 0 0 0 -0 0 -0 -0 -0 -0 -0 -0 -0
0 0 0 0 0 0 0 0 0 0 0 0 0 0 0 0 0 0 0 0 0 0 0 0 0 0 0 0 0 0 0 0 0 0 0 0 0 0 0 0 -0 0 0 0 0 -0 -0 -0 0 0 -0 -0 -0 -0
0 0 0 0 0 0 0 0 0 0 0 0 0 0 0 0 0 0 0 0 0 0 0 0 0 0 0 0 0 0 0 0 0 0 0 0 0 0 0 0 0 0 0 0 0 0 0 0 0 0 0 0 -0 -0
0 0 0 0 0 0 0 0 0 0 0 0 0 0 0 0 0 0 0 0 0 0 0 0 0 0 0 0 0 0 0 0 0 0 0 0 0 0 0 0 0 0 0 0 0 0 -0 0 0 0 0 0 0 0
0 0 0 0 0 0 0 0 0 0 0 0 0 0 0 0 0 0 0 0 0 0 0 0 0 0 0 0 0 0 0 0 0 0 0 0 0 0 0 0 0 0 0 0 0 0 0 0 0 0 0 0 0 0
0 0 0 0 0 0 0 0 0 0 0 0 0 0 0 0 0 0 0 0 0 0 0 0 0 0 0 0 0 0 0 0 0 0 0 0 0 0 0 -0 0 0 0 0 0 0 0 0 0 0 0 0 0 0
0 0 0 0 0 0 0 0 0 0 0 0 0 0 0 0 0 0 0 0 0 0 0 0 0 0 0 0 0 0 0 0 0 0 0 0 0 0 0 0 0 0 0 0 0 0 0 0 0 0 0 0 0 0
0 0 0 0 0 0 0 0 0 0 0 0 0 0 0 0 0 0 0 0 0 0 0 0 0 0 0 0 0 0 0 0 0 0 0 -0 0 0 0 0 0 -0 -0 0 0 0 0 0 0 0 0 0 0 0
0 0 0 0 0 0 0 0 0 0 0 0 0 0 0 0 0 0 0 0 0 0 0 0 0 0 0 0 0 0 0 0 0 0 0 -0 0 0 0 0 0 0 0 0 0 0 0 0 0 0 0 0 0 0
-0 -0 0 0 0 0 0 0 0 0 0 0 0 0 0 0 0 0 0 0 0 0 0 0 0 0 0 0 0 0 0 0 0 0 0 0 0 0 0 0 0 0 0 0 0 0 0 0 -0 -0 0 0 0 0
-0 -0 -0 0 0 0 0 0 0 0 0 0 0 0 0 0 0 0 0 0 0 -0 -0 0 0 0 0 0 0 0 0 0 0 0 0 0 0 0 0 0 0 0 0 0 0 0 0 0 0 0 0 0 0 0
0 -0 -0 -0 0 0 0 0 0 0 0 0 0 0 0 0 0 0 0 0 0 -0 0 -0 0 0 0 0 0 0 0 0 0 0 0 0 0 0 0 0 0 0 0 0 0 0 0 0 0 0 0 0 0 0
0 0 -0 -0 0 0 0 0 0 0 0 0 0 0 0 0 0 0 0 0 -0 -0 -0 -0 0 0 0 0 0 0 0 0 0 0 0 0 0 0 0 0 0 0 0 0 0 0 0 0 0 0 0 0 0 0
-0 0 0 -0 -0 -0 0 0 0 0 0 0 0 0 0 0 0 0 0 -0 -0 -0 -0 0 0 0 0 0 0 0 0 0 0 0 0 0 0 0 0 0 0 0 0 0 0 0 0 0 0 0 0 0 0 0
0 0 -0 -0 -0 0 0 0 0 0 0 0 0 0 0 0 0 0 -0 -0 -0 -0 -0 0 -0 0 0 0 0 0 0 0 0 0 0 0 0 0 0 0 0 0 0 0 0 0 0 0 0 0 0 0 0 0
0 0 0 -0 0 0 -0 -0 -0 0 0 0 0 0 0 0 0 -0 -0 -0 -0 -0 -0 -0 -0 0 0 0 0 0 0 0 0 0 0 0 0 0 0 0 0 0 0 0 0 0 0 0 0 0 0 0 0 0
0 0 0 0 0 0 0 -0 0 0 0 0 0 0 0 -0 -0 -0 -0 -0 -0 -0 0 0 0 -0 -0 -0 -0 -0 -0 0 0 0 0 0 0 0 0 0 0 0 0 0 0 0 0 0 0 0 0 0 0 0
0 0 0 0 0 0 0 0 0 0 0 0 0 0 -0 -0 -0 -0 -0 -0 -0 0 0 0 -0 -0 -0 0 0 -0 0 0 0 0 0 0 0 0 0 0 0 0 0 0 0 0 0 0 0 0 0 0 0 0
0 0 0 0 0 0 0 0 0 0 0 0 0 0 -0 -0 -0 -0 -0 0 0 0 0 0 -0 -0 -0 0 0 0 0 0 0 0 0 0 0 0 0 0 0 0 0 0 0 0 0 0 0 0 0 0 0 0
0 0 0 0 0 0 0 0 0 0 0 0 0 -0 -0 0 0 0 -0 -0 0 0 0 0 0 -0 -0 -0 0 0 0 0 0 0 0 0 0 0 0 0 0 0 0 0 0 0 0 0 0 0 0 0 0 0
0 0 0 0 0 0 0 0 0 0 0 0 -0 -0 0 0 0 -0 -0 0 0 0 0 0 0 -0 -0 0 0 0 0 0 0 0 0 0 0 0 0 0 0 0 0 0 0 0 0 0 0 0 0 0 0 0
0 0 0 0 0 0 0 0 0 0 0 0 -0 -0 -0 -0 -0 -0 -0 0 0 0 0 0 0 -0 -0 0 0 0 0 0 0 0 0 0 0 0 0 0 0 0 0 0 0 0 0 0 0 0 0 0 0 0
0 0 0 0 0 0 0 0 0 0 -0 -0 -0 -0 0 -0 -0 0 0 0 0 0 0 0 0 0 -0 0 0 0 0 0 0 0 0 0 0 0 0 0 0 0 0 0 0 0 0 0 0 0 0 0 0 0
0 0 0 0 0 0 0 0 0 0 -0 -0 0 0 0 -0 0 0 0 0 0 0 0 0 0 0 0 0 0 0 0 0 0 0 0 0 0 0 0 0 0 0 0 0 0 0 0 0 0 0 0 0 0 0
0 0 0 0 0 0 0 0 -0 -0 -0 0 0 0 -0 -0 0 -0 -0 -0 0 0 0 0 0 0 0 0 0 0 0 0 0 0 0 0 0 0 0 0 0 0 0 0 0 0 0 0 0 0 0 0 0 0
0 0 0 0 0 0 0 -0 -0 0 0 0 -0 -0 -0 -0 -0 -0 -0 -0 0 0 0 0 0 0 0 0 0 0 0 0 0 0 0 0 0 0 0 0 0 0 0 0 0 0 0 0 0 0 0 0 0 0
0 0 0 0 0 0 0 0 -0 0 0 -0 -0 -0 -0 -0 -0 -0 -0 0 0 0 0 0 0 0 0 0 0 0 0 0 0 0 0 0 0 0 0 0 0 0 0 0 0 0 0 0 0 0 0 0 0 0
0 0 0 -0 0 0 -0 -0 -0 -0 -0 -0 0 -0 -0 -0 -0 -0 -0 -0 0 0 0 0 0 0 0 0 0 0 0 0 0 0 0 0 0 0 0 0 0 0 0 0 0 0 0 0 0 0 0 0 0 0
0 0 0 0 0 0 0 0 0 0 0 0 -0 -0 -0 -0 -0 -0 -0 0 0 0 0 0 0 0 0 0 0 0 0 0 0 0 0 0 0 0 0 0 0 0 0 0 0 0 0 0 0 0 0 0 0 0
0 0 0 0 0 0 0 0 0 -0 -0 -0 -0 -0 -0 0 0 0 0 0 0 0 0 0 0 0 0 0 0 0 0 0 0 0 0 0 0 0 0 0 0 0 0 0 0 0 0 0 0 0 -0 -0 -0 -0
Wind_Speed_500mb
50 45 44 54 51 48 44 39 45 41 30 21 24 24 19 15 11 14 25 18 12 14 20 29 32 26 12 9 4 10 5 6 5 7 7 4 6 6 4 7 12 17 18 9 8 7 12 23 16 12 3 3 41 47
50 49 50 51 53 57 45 49 40 48 42 31 19 24 26 21 13 12 20 21 27 15 16 22 34 31 34 32 21 21 6 7 15 7 5 2 6 4 2 6 5 7 10 7 18 10 2 62 11 36 9 8 34 55
49 53 46 56 42 48 52 47 50 42 46 48 31 22 28 28 19 12 25 23 17 25 40 44 45 48 49 44 41 12 12 16 13 14 5 0 12 7 7 10 5 12 11 7 3 5 24 44 64 27 32 19 27 51
56 51 44 47 47 47 52 65 63 54 46 60 46 29 30 32 25 17 20 26 22 13 10 14 21 26 25 28 37 42 37 18 15 16 7 5 6 11 6 3 6 3 17 7 13 21 28 49 58 60 54 31 26 46
42 44 47 47 44 45 48 53 63 72 54 52 59 42 36 35 32 26 31 29 42 18 9 16 35 47 41 33 30 33 37 28 17 12 8 8 7 5 5 3 11 22 14 12 13 19 9 11 8 24 57 67 40 47
42 39 42 39 47 56 57 56 57 65 66 52 62 49 41 36 30 21 13 10 30 48 12 6 10 22 27 24 25 30 34 29 16 10 9 11 12 12 8 8 15 50 65 66 21 15 25 27 22 21 28 63 61 50
45 40 43 50 56 52 49 49 57 53 70 65 61 57 45 34 29 23 5 15 19 15 9 12 8 5 14 16 17 20 27 18 16 9 13 9 11 17 6 14 8 46 51 55 64 50 35 46 17 12 19 34 60 54
35 40 44 52 42 41 42 43 47 48 59 65 54 55 41 31 21 27 27 28 35 13 14 8 2 5 20 11 10 18 14 19 15 10 6 7 6 9 11 25 72 85 65 60 51 48 54 34 22 25 29 25 51 67
36 33 40 35 31 35 41 42 44 49 50 55 52 44 39 30 24 36 22 16 21 23 10 10 7 6 21 10 8 14 14 7 9 5 6 9 6 13 32 41 59 51 39 29 27 47 62 68 59 47 33 25 36 64
30 28 31 17 19 22 53 47 45 50 43 56 65 27 15 19 37 19 10 9 18 16 21 8 3 6 18 11 7 6 7 5 6 6 8 7 10 77 79 80 78 62 43 39 38 33 37 54 64 68 66 52 43 38
30 26 19 9 8 11 5 49 47 44 57 42 16 15 22 28 15 12 11 13 15 10 19 20 43 9 22 7 7 16 4 4 6 4 6 5 10 13 37 46 71 84 74 66 52 46 34 30 24 31 49 57 57 52
29 24 10 26 15 19 18 45 55 48 25 23 20 29 21 11 9 5 7 6 10 11 7 13 23 27 20 15 7 9 5 2 11 6 4 7 11 31 25 18 15 22 36 47 61 61 51 42 33 27 23 20 34 49
32 27 13 23 18 22 23 26 37 35 35 32 10 10 9 7 5 10 10 7 6 15 5 6 6 19 16 13 8 4 9 10 7 5 9 12 14 10 7 10 9 6 8 17 31 47 57 62 64 63 58 52 38 34
33 32 30 23 21 24 27 30 35 37 32 8 13 6 8 3 7 10 7 6 5 21 39 37 16 13 14 11 7 9 2 2 5 6 13 7 9 7 13 14 12 13 13 13 17 20 24 27 30 32 34 41 55 38
39 38 32 33 30 29 27 31 35 42 13 10 10 8 7 22 8 11 2 6 16 41 35 19 17 13 7 9 7 10 6 12 13 11 8 6 7 10 12 13 11 12 15 13 14 15 17 19 20 24 25 24 32 48
39 40 42 36 35 36 36 34 37 45 13 11 9 2 12 5 11 8 6 4 22 37 33 17 8 10 13 9 12 20 10 14 8 8 8 7 7 12 12 10 9 8 8 8 7 5 6 6 5 7 9 11 15 25
32 43 44 45 37 37 40 43 38 23 16 12 13 29 21 7 15 33 38 35 35 25 4 10 9 15 8 7 9 11 14 7 4 6 10 11 11 11 11 8 7 7 9 9 9 10 11 14 16 17 15 15 15 13
34 35 33 43 37 38 39 41 20 16 12 14 9 34 41 40 43 42 46 44 33 17 10 8 15 7 10 16 11 13 23 17 13 12 15 16 15 15 16 15 17 19 20 21 20 21 23 25 25 28 25 21 15 13
37 29 29 47 49 38 20 17 16 11 25 10 31 36 33 28 39 47 47 45 35 31 13 10 11 10 9 2 5 8 13 22 20 22 20 21 21 22 26 24 24 25 26 28 26 26 29 31 32 28 23 17 11 13
38 33 31 39 55 28 16 14 22 14 12 17 21 25 32 33 44 48 49 36 30 16 15 10 12 12 7 31 28 28 23 19 30 36 29 28 30 30 29 26 26 28 29 30 31 31 30 32 31 28 23 20 16 16
43 40 34 35 29 20 19 18 20 15 13 17 18 28 19 32 44 45 45 33 26 15 9 30 34 29 32 37 24 17 12 22 36 21 36 44 37 33 34 33 30 29 28 28 27 27 25 29 29 26 22 22 21 20
54 46 38 35 25 16 17 21 10 23 16 10 12 17 12 9 15 28 20 22 16 24 26 21 24 19 15 15 3 2 15 23 20 16 38 47 49 42 36 32 27 28 28 28 25 24 26 28 27 24 21 24 23 22
50 46 28 20 10 10 7 33 14 20 6 6 14 7 5 7 11 16 11 13 14 19 20 20 18 8 10 9 12 14 14 14 31 44 45 44 42 38 34 32 26 23 25 26 25 24 25 26 24 22 23 23 21 21
51 30 25 23 17 10 12 10 7 12 8 4 4 7 7 15 14 8 7 6 12 15 15 16 16 17 16 15 13 16 23 28 39 44 41 40 41 37 30 28 26 26 26 28 28 25 25 25 24 23 23 21 22 22
32 18 19 9 11 11 7 7 2 5 8 9 7 7 6 8 4 7 8 5 9 14 15 19 20 16 25 29 26 27 34 40 40 41 36 27 29 33 32 30 29 29 29 26 27 25 27 27 25 24 25 25 25 26
8 6 8 9 9 11 12 10 11 15 8 6 12 7 2 0 7 12 1 3 4 9 13 19 16 18 20 26 33 33 30 30 30 32 34 30 26 23 29 31 29 29 29 26 24 25 27 27 26 25 27 28 29 26
10 8 7 7 11 18 7 5 9 7 9 12 6 3 4 6 12 5 2 8 12 14 12 13 16 18 20 27 28 30 30 28 22 22 28 26 24 24 20 22 26 30 30 28 28 25 24 26 27 28 29 31 33 31
8 15 12 14 9 3 10 3 11 13 6 6 4 7 9 8 4 7 8 12 16 15 14 15 17 22 27 29 30 31 31 26 29 30 30 29 26 25 26 27 30 31 31 31 28 28 28 28 31 32 32 37 40 38
8 16 17 6 4 8 5 5 7 7 16 15 10 8 6 9 9 4 3 13 19 20 19 18 23 28 29 29 31 32 35 35 34 35 33 35 33 31 31 30 32 32 31 34 36 34 35 35 37 38 41 43 45 43
8 16 12 7 7 8 5 7 12 16 14 11 5 2 6 10 11 10 8 17 23 25 28 28 28 31 34 36 39 36 29 24 23 22 30 33 35 37 36 35 35 35 34 35 39 43 42 41 44 45 46 46 45 46
28 14 12 6 2 4 8 20 19 16 10 7 8 7 7 7 7 12 17 22 27 29 30 32 32 30 32 32 29 25 25 26 27 26 25 35 39 40 39 39 40 41 41 41 43 43 44 46 47 48 47 48 46 44
9 8 8 6 1 17 24 7 9 6 8 7 7 11 11 8 9 13 20 27 29 31 31 31 31 32 32 29 27 22 22 31 34 37 38 40 43 44 45 46 47 46 47 48 48 48 45 48 49 47 48 47 45 44
13 9 12 11 8 6 15 10 11 8 8 12 15 22 21 18 12 16 24 30 29 31 32 34 34 35 35 33 31 40 43 44 45 45 46 46 48 50 52 52 52 50 49 51 51 48 47 47 49 47 46 45 43 42
Wind_Direction_500mb
243 248 252 250 250 251 256 258 243 249 254 276 291 280 286 302 257 242 220 236 276 260 263 273 270 266 244 194 213 163 150 180 160 206 214 243 219 187 237 160 181 175 164 188 178 223 280 152 123 193 208 147 191 180
244 251 252 253 250 250 249 249 255 243 239 250 265 277 276 286 291 263 226 237 251 271 269 271 279 274 253 265 252 195 256 164 185 186 212 277 247 188 263 264 204 238 206 190 207 220 45 187 215 204 206 179 191 193
249 253 252 248 253 254 252 252 243 253 252 240 237 251 263 273 274 261 226 233 272 285 279 268 266 262 259 256 255 220 227 219 202 186 137 271 261 163 222 236 234 224 183 250 299 220 234 229 226 232 229 225 212 203
252 250 254 255 254 257 254 242 242 242 247 233 234 229 242 260 263 265 256 230 232 268 269 263 263 260 261 250 239 240 242 214 206 189 186 215 245 211 245 301 235 140 152 216 259 275 266 261 240 238 228 233 221 208
246 254 250 252 260 258 258 253 243 233 237 243 228 221 225 243 249 260 271 260 221 228 285 293 294 287 274 254 245 235 232 227 186 179 195 218 221 224 220 283 237 187 187 193 231 230 233 270 289 237 231 224 219 207
241 241 248 263 262 267 264 246 243 233 231 243 219 211 221 229 233 255 274 307 227 216 266 260 251 250 253 238 226 220 211 212 209 208 214 226 219 183 246 247 252 228 228 233 247 257 253 264 265 266 263 222 219 219
238 241 254 264 279 272 258 245 236 232 223 224 225 203 214 213 215 207 204 186 175 200 247 273 231 249 226 199 199 207 209 213 212 228 230 235 199 201 250 248 263 263 262 255 248 251 268 255 253 264 258 225 220 227
240 250 264 287 278 261 244 226 224 226 218 221 225 194 194 197 210 230 242 224 246 246 214 259 253 227 179 180 191 190 197 203 222 244 246 220 188 226 258 242 246 252 251 252 248 245 244 257 256 251 243 239 219 221
242 262 287 287 279 249 228 214 218 217 214 210 204 181 174 184 199 223 241 252 257 213 258 232 195 239 173 172 176 180 186 209 221 242 226 180 195 226 225 235 246 248 238 240 248 246 244 242 241 242 240 235 234 223
245 269 303 288 313 268 215 212 206 206 209 198 176 151 158 189 210 218 235 189 192 223 229 256 239 173 167 165 188 166 202 234 234 209 157 210 250 246 247 244 255 258 255 248 243 246 241 241 240 239 239 245 246 249
243 265 279 146 71 120 178 199 196 193 170 143 122 137 141 144 152 184 200 193 204 231 221 206 210 160 199 156 181 208 206 205 249 170 216 229 264 246 264 257 252 253 258 254 249 248 253 251 252 245 241 245 245 242
216 242 263 159 136 113 101 129 144 139 121 123 126 121 136 171 170 141 209 221 210 227 204 173 183 178 177 193 145 185 215 163 250 125 212 253 253 257 266 270 275 254 245 241 238 237 238 236 231 233 241 256 250 240
208 214 221 127 139 143 137 140 141 147 145 139 115 138 157 163 139 179 218 255 301 353 320 282 185 174 150 179 103 159 214 226 127 192 233 239 256 260 272 245 251 268 251 241 242 243 246 251 255 258 261 257 253 255
197 202 200 185 182 174 167 164 162 166 159 139 156 148 177 215 226 198 176 175 324 327 315 289 258 179 165 167 149 202 166 214 230 234 234 242 243 250 218 228 244 265 271 267 261 254 248 247 245 247 250 244 235 239
204 195 197 197 195 188 183 184 186 179 157 166 160 193 199 217 195 153 261 295 358 340 334 288 259 219 166 165 188 107 174 237 220 228 228 233 225 213 195 217 244 270 279 281 273 262 255 251 246 245 246 241 228 221
205 202 202 201 197 200 198 186 189 192 180 192 213 162 220 179 249 176 223 275 350 342 334 263 258 246 187 167 167 209 189 219 229 224 258 202 164 171 182 207 233 253 270 278 269 246 227 220 211 206 201 203 202 212
187 204 204 197 198 199 195 193 188 194 206 196 221 221 222 202 238 277 283 272 296 291 267 282 255 240 109 178 235 199 219 218 277 235 186 171 167 157 154 164 155 140 131 125 111 108 112 107 107 108 117 140 163 180
203 203 202 189 182 177 190 186 192 196 222 204 173 215 225 238 240 248 253 254 238 233 239 242 289 275 220 188 224 219 226 232 238 195 174 166 160 147 136 129 126 126 122 114 106 98 96 99 107 106 110 117 132 141
210 200 193 183 182 178 178 192 201 217 219 205 221 228 220 230 252 259 259 259 260 253 233 228 250 242 247 245 297 313 252 217 200 177 163 155 148 142 132 128 120 115 109 104 102 98 95 97 97 101 104 107 128 117
208 206 189 181 188 178 175 199 195 216 199 206 216 229 235 246 256 255 262 256 226 217 216 219 229 251 284 305 304 293 288 228 191 157 152 151 148 144 136 131 124 114 110 105 100 95 94 96 96 97 101 103 106 110
208 207 198 205 201 167 193 174 179 200 192 192 214 217 230 240 249 254 254 247 201 217 238 241 246 266 279 276 280 264 212 199 189 191 174 152 147 144 134 131 123 117 112 106 104 103 105 100 97 96 100 103 97 94
208 205 203 213 208 188 200 210 234 177 180 188 179 208 228 240 243 251 235 189 224 232 230 228 250 277 272 254 233 174 181 190 213 189 164 150 142 142 137 130 127 120 114 106 102 102 99 95 93 92 92 89 87 85
202 202 197 203 190 200 227 173 187 179 140 228 167 191 244 248 240 223 247 226 204 233 250 237 247 234 205 171 160 164 191 217 165 152 150 146 140 138 135 129 125 118 115 114 109 104 102 98 97 97 92 90 85 83
196 196 191 175 164 165 176 217 183 137 158 121 130 253 268 219 215 213 262 246 249 250 223 199 179 173 156 156 161 158 152 165 157 146 145 146 141 134 132 127 126 125 123 117 113 110 106 104 99 96 92 89 89 83
165 184 172 152 150 118 128 181 196 102 192 210 144 267 257 176 234 225 219 169 187 195 193 188 190 185 180 158 153 154 155 159 159 147 140 145 138 136 134 133 130 123 112 110 112 113 108 103 102 98 93 86 79 75
120 165 183 155 156 148 176 131 180 189 163 181 231 248 221 351 224 252 159 354 193 187 173 180 181 173 170 164 156 155 154 155 157 153 137 132 130 133 132 132 127 119 116 115 111 110 107 103 99 95 91 85 79 73
133 212 157 136 129 134 97 116 136 119 155 188 221 155 107 238 242 261 303 230 200 191 184 178 178 179 184 173 164 158 157 158 165 155 142 139 138 138 135 131 127 122 116 114 110 104 102 101 100 97 96 96 90 83
116 154 148 157 108 117 133 133 148 188 160 171 122 166 223 214 137 181 191 184 184 196 199 186 178 172 174 175 169 161 155 155 150 141 139 135 131 129 129 127 122 116 114 110 110 109 107 106 102 102 100 94 92 87
97 135 134 81 114 58 99 158 145 157 150 170 161 196 233 273 308 313 163 175 178 175 190 174 163 165 167 161 153 151 145 141 141 143 138 133 134 130 125 122 119 119 121 121 115 111 108 105 104 102 99 95 93 91
169 146 83 16 128 193 110 111 143 149 164 182 196 258 305 290 293 270 221 184 179 182 180 175 172 167 162 160 154 152 151 152 152 149 144 144 143 138 132 128 126 121 117 117 116 115 113 111 107 102 98 97 95 92
147 137 100 76 153 64 117 130 126 134 147 182 203 208 233 246 241 216 203 192 187 180 177 175 172 172 172 170 168 165 158 150 143 143 145 145 143 138 134 131 126 122 121 120 117 117 116 113 107 104 101 98 97 94
141 121 124 134 222 138 138 137 144 151 172 176 197 188 204 223 251 218 196 181 185 183 175 170 175 174 170 168 163 160 160 149 138 138 142 143 140 137 133 130 127 127 126 123 118 114 113 109 108 106 104 102 99 95
120 105 94 109 119 175 189 161 179 166 207 216 219 204 196 201 229 204 186 178 177 173 169 165 165 164 160 159 158 150 143 141 141 141 140 138 135 132 130 128 127 125 122 118 118 117 115 113 111 110 107 104 102 98
Wind_Speed_850mb
50 45 44 54 51 48 44 39 45 41 30 21 24 24 19 15 11 14 25 18 12 14 20 29 32 26 12 9 4 10 5 6 5 7 7 4 6 6 4 7 12 17 18 9 8 7 12 23 16 12 3 3 41 47
50 49 50 51 53 57 45 49 40 48 42 31 19 24 26 21 13 12 20 21 27 15 16 22 34 31 34 32 21 21 6 7 15 7 5 2 6 4 2 6 5 7 10 7 18 10 2 62 11 36 9 8 34 55
49 53 46 56 42 48 52 47 50 42 46 48 31 22 28 28 19 12 25 23 17 25 40 44 45 48 49 44 41 12 12 16 13 14 5 0 12 7 7 10 5 12 11 7 3 5 24 44 64 27 32 19 27 51
56 51 44 47 47 47 52 65 63 54 46 60 46 29 30 32 25 17 20 26 22 13 10 14 21 26 25 28 37 42 37 18 15 16 7 5 6 11 6 3 6 3 17 7 13 21 28 49 58 60 54 31 26 46
42 44 47 47 44 45 48 53 63 72 54 52 59 42 36 35 32 26 31 29 42 18 9 16 35 47 41 33 30 33 37 28 17 12 8 8 7 5 5 3 11 22 14 12 13 19 9 11 8 24 57 67 40 47
42 39 42 39 47 56 57 56 57 65 66 52 62 49 41 36 30 21 13 10 30 48 12 6 10 22 27 24 25 30 34 29 16 10 9 11 12 12 8 8 15 50 65 66 21 15 25 27 22 21 28 63 61 50
45 40 43 50 56 52 49 49 57 53 70 65 61 57 45 34 29 23 5 15 19 15 9 12 8 5 14 16 17 20 27 18 16 9 13 9 11 17 6 14 8 46 51 55 64 50 35 46 17 12 19 34 60 54
35 40 44 52 42 41 42 43 47 48 59 65 54 55 41 31 21 27 27 28 35 13 14 8 2 5 20 11 10 18 14 19 15 10 6 7 6 9 11 25 72 85 65 60 51 48 54 34 22 25 29 25 51 67
36 33 40 35 31 35 41 42 44 49 50 55 52 44 39 30 24 36 22 16 21 23 10 10 7 6 21 10 8 14 14 7 9 5 6 9 6 13 32 41 59 51 39 29 27 47 62 68 59 47 33 25 36 64
30 28 31 17 19 22 53 47 45 50 43 56 65 27 15 19 37 19 10 9 18 16 21 8 3 6 18 11 7 6 7 5 6 6 8 7 10 77 79 80 78 62 43 39 38 33 37 54 64 68 66 52 43 38
30 26 19 9 8 11 5 49 47 44 57 42 16 15 22 28 15 12 11 13 15 10 19 20 43 9 22 7 7 16 4 4 6 4 6 5 10 13 37 46 71 84 74 66 52 46 34 30 24 31 49 57 57 52
29 24 10 26 15 19 18 45 55 48 25 23 20 29 21 11 9 5 7 6 10 11 7 13 23 27 20 15 7 9 5 2 11 6 4 7 11 31 25 18 15 22 36 47 61 61 51 42 33 27 23 20 34 49
32 27 13 23 18 22 23 26 37 35 35 32 10 10 9 7 5 10 10 7 6 15 5 6 6 19 16 13 8 4 9 10 7 5 9 12 14 10 7 10 9 6 8 17 31 47 57 62 64 63 58 52 38 34
33 32 30 23 21 24 27 30 35 37 32 8 13 6 8 3 7 10 7 6 5 21 39 37 16 13 14 11 7 9 2 2 5 6 13 7 9 7 13 14 12 13 13 13 17 20 24 27 30 32 34 41 55 38
39 38 32 33 30 29 27 31 35 42 13 10 10 8 7 22 8 11 2 6 16 41 35 19 17 13 7 9 7 10 6 12 13 11 8 6 7 10 12 13 11 12 15 13 14 15 17 19 20 24 25 24 32 48
39 40 42 36 35 36 36 34 37 45 13 11 9 2 12 5 11 8 6 4 22 37 33 17 8 10 13 9 12 20 10 14 8 8 8 7 7 12 12 10 9 8 8 8 7 5 6 6 5 7 9 11 15 25
32 43 44 45 37 37 40 43 38 23 16 12 13 29 21 7 15 33 38 35 35 25 4 10 9 15 8 7 9 11 14 7 4 6 10 11 11 11 11 8 7 7 9 9 9 10 11 14 16 17 15 15 15 13
34 35 33 43 37 38 39 41 20 16 12 14 9 34 41 40 43 42 46 44 33 17 10 8 15 7 10 16 11 13 23 17 13 12 15 16 15 15 16 15 17 19 20 21 20 21 23 25 25 28 25 21 15 13
37 29 29 47 49 38 20 17 16 11 25 10 31 36 33 28 39 47 47 45 35 31 13 10 11 10 9 2 5 8 13 22 20 22 20 21 21 22 26 24 24 25 26 28 26 26 29 31 32 28 23 17 11 13
38 33 31 39 55 28 16 14 22 14 12 17 21 25 32 33 44 48 49 36 30 16 15 10 12 12 7 31 28 28 23 19 30 36 29 28 30 30 29 26 26 28 29 30 31 31 30 32 31 28 23 20 16 16
43 40 34 35 29 20 19 18 20 15 13 17 18 28 19 32 44 45 45 33 26 15 9 30 34 29 32 37 24 17 12 22 36 21 36 44 37 33 34 33 30 29 28 28 27 27 25 29 29 26 22 22 21 20
54 46 38 35 25 16 17 21 10 23 16 10 12 17 12 9 15 28 20 22 16 24 26 21 24 19 15 15 3 2 15 23 20 16 38 47 49 42 36 32 27 28 28 28 25 24 26 28 27 24 21 24 23 22
50 46 28 20 10 10 7 33 14 20 6 6 14 7 5 7 11 16 11 13 14 19 20 20 18 8 10 9 12 14 14 14 31 44 45 44 42 38 34 32 26 23 25 26 25 24 25 26 24 22 23 23 21 21
51 30 25 23 17 10 12 10 7 12 8 4 4 7 7 15 14 8 7 6 12 15 15 16 16 17 16 15 13 16 23 28 39 44 41 40 41 37 30 28 26 26 26 28 28 25 25 25 24 23 23 21 22 22
32 18 19 9 11 11 7 7 2 5 8 9 7 7 6 8 4 7 8 5 9 14 15 19 20 16 25 29 26 27 34 40 40 41 36 27 29 33 32 30 29 29 29 26 27 25 27 27 25 24 25 25 25 26
8 6 8 9 9 11 12 10 11 15 8 6 12 7 2 0 7 12 1 3 4 9 13 19 16 18 20 26 33 33 30 30 30 32 34 30 26 23 29 31 29 29 29 26 24 25 27 27 26 25 27 28 29 26
10 8 7 7 11 18 7 5 9 7 9 12 6 3 4 6 12 5 2 8 12 14 12 13 16 18 20 27 28 30 30 28 22 22 28 26 24 24 20 22 26 30 30 28 28 25 24 26 27 28 29 31 33 31
8 15 12 14 9 3 10 3 11 13 6 6 4 7 9 8 4 7 8 12 16 15 14 15 17 22 27 29 30 31 31 26 29 30 30 29 26 25 26 27 30 31 31 31 28 28 28 28 31 32 32 37 40 38
8 16 17 6 4 8 5 5 7 7 16 15 10 8 6 9 9 4 3 13 19 20 19 18 23 28 29 29 31 32 35 35 34 35 33 35 33 31 31 30 32 32 31 34 36 34 35 35 37 38 41 43 45 43
8 16 12 7 7 8 5 7 12 16 14 11 5 2 6 10 11 10 8 17 23 25 28 28 28 31 34 36 39 36 29 24 23 22 30 33 35 37 36 35 35 35 34 35 39 43 42 41 44 45 46 46 45 46
28 14 12 6 2 4 8 20 19 16 10 7 8 7 7 7 7 12 17 22 27 29 30 32 32 30 32 32 29 25 25 26 27 26 25 35 39 40 39 39 40 41 41 41 43 43 44 46 47 48 47 48 46 44
9 8 8 6 1 17 24 7 9 6 8 7 7 11 11 8 9 13 20 27 29 31 31 31 31 32 32 29 27 22 22 31 34 37 38 40 43 44 45 46 47 46 47 48 48 48 45 48 49 47 48 47 45 44
13 9 12 11 8 6 15 10 11 8 8 12 15 22 21 18 12 16 24 30 29 31 32 34 34 35 35 33 31 40 43 44 45 45 46 46 48 50 52 52 52 50 49 51 51 48 47 47 49 47 46 45 43 42
Wind_Direction_850mb
243 248 252 250 250 251 256 258 243 249 254 276 291 280 286 302 257 242 220 236 276 260 263 273 270 266 244 194 213 163 150 180 160 206 214 243 219 187 237 160 181 175 164 188 178 223 280 152 123 193 208 147 191 180
244 251 252 253 250 250 249 249 255 243 239 250 265 277 276 286 291 263 226 237 251 271 269 271 279 274 253 265 252 195 256 164 185 186 212 277 247 188 263 264 204 238 206 190 207 220 45 187 215 204 206 179 191 193
249 253 252 248 253 254 252 252 243 253 252 240 237 251 263 273 274 261 226 233 272 285 279 268 266 262 259 256 255 220 227 219 202 186 137 271 261 163 222 236 234 224 183 250 299 220 234 229 226 232 229 225 212 203
252 250 254 255 254 257 254 242 242 242 247 233 234 229 242 260 263 265 256 230 232 268 269 263 263 260 261 250 239 240 242 214 206 189 186 215 245 211 245 301 235 140 152 216 259 275 266 261 240 238 228 233 221 208
246 254 250 252 260 258 258 253 243 233 237 243 228 221 225 243 249 260 271 260 221 228 285 293 294 287 274 254 245 235 232 227 186 179 195 218 221 224 220 283 237 187 187 193 231 230 233 270 289 237 231 224 219 207
241 241 248 263 262 267 264 246 243 233 231 243 219 211 221 229 233 255 274 307 227 216 266 260 251 250 253 238 226 220 211 212 209 208 214 226 219 183 246 247 252 228 228 233 247 257 253 264 265 266 263 222 219 219
238 241 254 264 279 272 258 245 236 232 223 224 225 203 214 213 215 207 204 186 175 200 247 273 231 249 226 199 199 207 209 213 212 228 230 235 199 201 250 248 263 263 262 255 248 251 268 255 253 264 258 225 220 227
240 250 264 287 278 261 244 226 224 226 218 221 225 194 194 197 210 230 242 224 246 246 214 259 253 227 179 180 191 190 197 203 222 244 246 220 188 226 258 242 246 252 251 252 248 245 244 257 256 251 243 239 219 221
242 262 287 287 279 249 228 214 218 217 214 210 204 181 174 184 199 223 241 252 257 213 258 232 195 239 173 172 176 180 186 209 221 242 226 180 195 226 225 235 246 248 238 240 248 246 244 242 241 242 240 235 234 223
245 269 303 288 313 268 215 212 206 206 209 198 176 151 158 189 210 218 235 189 192 223 229 256 239 173 167 165 188 166 202 234 234 209 157 210 250 246 247 244 255 258 255 248 243 246 241 241 240 239 239 245 246 249
243 265 279 146 71 120 178 199 196 193 170 143 122 137 141 144 152 184 200 193 204 231 221 206 210 160 199 156 181 208 206 205 249 170 216 229 264 246 264 257 252 253 258 254 249 248 253 251 252 245 241 245 245 242
216 242 263 159 136 113 101 129 144 139 121 123 126 121 136 171 170 141 209 221 210 227 204 173 183 178 177 193 145 185 215 163 250 125 212 253 253 257 266 270 275 254 245 241 238 237 238 236 231 233 241 256 250 240
208 214 221 127 139 143 137 140 141 147 145 139 115 138 157 163 139 179 218 255 301 353 320 282 185 174 150 179 103 159 214 226 127 192 233 239 256 260 272 245 251 268 251 241 242 243 246 251 255 258 261 257 253 255
197 202 200 185 182 174 167 164 162 166 159 139 156 148 177 215 226 198 176 175 324 327 315 289 258 179 165 167 149 202 166 214 230 234 234 242 243 250 218 228 244 265 271 267 261 254 248 247 245 247 250 244 235 239
204 195 197 197 195 188 183 184 186 179 157 166 160 193 199 217 195 153 261 295 358 340 334 288 259 219 166 165 188 107 174 237 220 228 228 233 225 213 195 217 244 270 279 281 273 262 255 251 246 245 246 241 228 221
205 202 202 201 197 200 198 186 189 192 180 192 213 162 220 179 249 176 223 275 350 342 334 263 258 246 187 167 167 209 189 219 229 224 258 202 164 171 182 207 233 253 270 278 269 246 227 220 211 206 201 203 202 212
187 204 204 197 198 199 195 193 188 194 206 196 221 221 222 202 238 277 283 272 296 291 267 282 255 240 109 178 235 199 219 218 277 235 186 171 167 157 154 164 155 140 131 125 111 108 112 107 107 108 117 140 163 180
203 203 202 189 182 177 190 186 192 196 222 204 173 215 225 238 240 248 253 254 238 233 239 242 289 275 220 188 224 219 226 232 238 195 174 166 160 147 136 129 126 126 122 114 106 98 96 99 107 106 110 117 132 141
210 200 193 183 182 178 178 192 201 217 219 205 221 228 220 230 252 259 259 259 260 253 233 228 250 242 247 245 297 313 252 217 200 177 163 155 148 142 132 128 120 115 109 104 102 98 95 97 97 101 104 107 128 117
208 206 189 181 188 178 175 199 195 216 199 206 216 229 235 246 256 255 262 256 226 217 216 219 229 251 284 305 304 293 288 228 191 157 152 151 148 144 136 131 124 114 110 105 100 95 94 96 96 97 101 103 106 110
208 207 198 205 201 167 193 174 179 200 192 192 214 217 230 240 249 254 254 247 201 217 238 241 246 266 279 276 280 264 212 199 189 191 174 152 147 144 134 131 123 117 112 106 104 103 105 100 97 96 100 103 97 94
208 205 203 213 208 188 200 210 234 177 180 188 179 208 228 240 243 251 235 189 224 232 230 228 250 277 272 254 233 174 181 190 213 189 164 150 142 142 137 130 127 120 114 106 102 102 99 95 93 92 92 89 87 85
202 202 197 203 190 200 227 173 187 179 140 228 167 191 244 248 240 223 247 226 204 233 250 237 247 234 205 171 160 164 191 217 165 152 150 146 140 138 135 129 125 118 115 114 109 104 102 98 97 97 92 90 85 83
196 196 191 175 164 165 176 217 183 137 158 121 130 253 268 219 215 213 262 246 249 250 223 199 179 173 156 156 161 158 152 165 157 146 145 146 141 134 132 127 126 125 123 117 113 110 106 104 99 96 92 89 89 83
165 184 172 152 150 118 128 181 196 102 192 210 144 267 257 176 234 225 219 169 187 195 193 188 190 185 180 158 153 154 155 159 159 147 140 145 138 136 134 133 130 123 112 110 112 113 108 103 102 98 93 86 79 75
120 165 183 155 156 148 176 131 180 189 163 181 231 248 221 351 224 252 159 354 193 187 173 180 181 173 170 164 156 155 154 155 157 153 137 132 130 133 132 132 127 119 116 115 111 110 107 103 99 95 91 85 79 73
133 212 157 136 129 134 97 116 136 119 155 188 221 155 107 238 242 261 303 230 200 191 184 178 178 179 184 173 164 158 157 158 165 155 142 139 138 138 135 131 127 122 116 114 110 104 102 101 100 97 96 96 90 83
116 154 148 157 108 117 133 133 148 188 160 171 122 166 223 214 137 181 191 184 184 196 199 186 178 172 174 175 169 161 155 155 150 141 139 135 131 129 129 127 122 116 114 110 110 109 107 106 102 102 100 94 92 87
97 135 134 81 114 58 99 158 145 157 150 170 161 196 233 273 308 313 163 175 178 175 190 174 163 165 167 161 153 151 145 141 141 143 138 133 134 130 125 122 119 119 121 121 115 111 108 105 104 102 99 95 93 91
169 146 83 16 128 193 110 111 143 149 164 182 196 258 305 290 293 270 221 184 179 182 180 175 172 167 162 160 154 152 151 152 152 149 144 144 143 138 132 128 126 121 117 117 116 115 113 111 107 102 98 97 95 92
147 137 100 76 153 64 117 130 126 134 147 182 203 208 233 246 241 216 203 192 187 180 177 175 172 172 172 170 168 165 158 150 143 143 145 145 143 138 134 131 126 122 121 120 117 117 116 113 107 104 101 98 97 94
141 121 124 134 222 138 138 137 144 151 172 176 197 188 204 223 251 218 196 181 185 183 175 170 175 174 170 168 163 160 160 149 138 138 142 143 140 137 133 130 127 127 126 123 118 114 113 109 108 106 104 102 99 95
120 105 94 109 119 175 189 161 179 166 207 216 219 204 196 201 229 204 186 178 177 173 169 165 165 164 160 159 158 150 143 141 141 141 140 138 135 132 130 128 127 125 122 118 118 117 115 113 111 110 107 104 102 98